RH
97 94 92 92 90 91 90 88 81 84 86 84 82 82 78 74 76 79 80 81 78 90 86 86 84 83 85 84 82 87 85 86 92
94 94 95 93 92 95 97 92 89 85 87 85 82 81 80 76 80 80 78 80 82 78 95 79 83 81 82 85 80 88 96 86 91
98 98 91 88 89 90 94 98 92 90 84 88 86 82 79 83 84 83 82 78 80 78 83 88 84 80 80 85 81 90 95 92 90
99 98 99 93 96 90 96 96 95 91 85 89 90 87 88 82 83 87 87 82 75 77 74 75 80 81 78 84 83 84 86 93 83
95 99 91 86 82 89 96 97 94 90 88 89 91 89 87 91 88 87 86 85 80 76 71 72 80 76 81 81 85 84 78 88 83
79 97 90 84 80 76 79 93 90 90 92 88 86 89 89 88 93 89 91 82 82 83 76 72 76 80 87 84 88 89 83 84 82
88 84 81 78 78 77 91 98 98 92 90 89 86 88 93 93 93 89 87 86 79 80 80 77 74 80 90 92 90 98 95 86 82
78 76 76 75 77 82 89 86 85 91 88 89 89 86 88 90 86 90 88 85 81 77 77 77 81 88 88 95 98 97 98 98 82
70 67 66 67 67 68 73 82 93 98 98 95 98 98 95 88 85 83 80 87 90 82 79 82 84 94 97 97 96 86 89 97 86
67 64 60 58 59 60 62 62 66 75 85 87 93 96 100 100 98 97 88 89 89 89 94 85 75 94 96 96 99 99 95 92 93
61 56 54 53 53 53 53 51 52 53 58 67 74 79 85 97 100 100 99 99 99 95 97 86 81 88 93 91 88 86 100 99 100
54 46 42 43 43 40 37 36 43 51 58 59 67 84 91 94 99 99 100 100 99 99 99 99 94 86 88 93 92 90 94 96 97
42 34 30 29 29 30 31 32 46 74 84 97 99 98 97 97 97 98 99 100 100 100 99 99 99 95 90 83 72 58 89 77 94
34 30 29 29 28 28 31 33 61 88 97 98 98 98 94 92 94 95 96 99 100 100 100 100 100 98 100 100 98 95 85 59 91
29 28 28 30 29 29 30 33 42 84 92 91 88 86 84 81 81 87 95 100 99 99 100 100 100 100 99 99 99 98 84 75 89
26 27 30 30 29 30 31 32 35 42 62 76 88 89 86 81 78 75 75 79 88 96 99 99 99 100 97 95 96 95 96 92 86
28 31 33 34 33 32 33 34 39 45 51 68 85 88 87 89 87 80 78 77 76 78 84 91 95 97 99 100 99 98 99 99 97
31 33 36 36 35 35 38 39 41 48 50 67 75 80 90 92 92 86 87 80 78 79 77 76 81 89 94 98 99 100 99 98 100
35 39 41 40 39 38 40 42 44 46 56 54 68 87 86 90 93 87 88 78 76 78 80 78 76 74 82 90 98 99 99 98 100
41 45 45 42 40 41 44 46 47 49 54 60 64 63 83 82 92 95 87 77 82 83 79 74 70 69 74 74 86 98 100 100 100
Wind_Speed
3 4 5 5 5 7 5 4 4 4 4 4 4 5 5 6 6 6 7 8 8 7 8 9 10 12 14 13 16 16 15 14 14
2 1 1 2 3 4 3 3 4 4 4 4 4 4 6 7 7 8 9 10 9 9 10 11 12 13 14 16 17 17 15 14 13
5 5 3 3 4 4 5 4 3 4 4 5 5 5 6 6 6 7 9 10 10 10 12 13 13 14 15 18 19 18 16 15 14
6 3 5 4 5 2 4 4 3 3 3 3 4 4 5 6 6 7 8 8 11 11 10 11 13 15 16 18 19 19 17 15 15
4 6 4 1 4 3 4 2 3 3 2 2 3 3 5 6 6 7 8 8 5 11 12 11 14 18 17 18 20 19 18 16 16
2 5 5 6 2 4 6 6 3 2 1 2 2 3 4 5 5 5 7 10 8 8 13 14 14 15 16 16 18 19 18 17 16
11 9 8 7 6 3 1 2 1 1 2 3 3 3 4 5 6 6 8 9 12 10 11 14 15 15 15 16 19 17 16 17 18
12 10 9 6 6 7 6 3 2 2 1 2 4 4 4 5 9 9 9 6 9 9 10 12 12 15 18 16 15 15 11 13 15
12 12 11 10 10 10 10 10 8 5 4 1 2 3 5 6 6 5 7 10 7 5 4 7 9 13 19 16 16 12 14 12 10
11 12 12 12 10 10 10 9 8 8 5 3 4 5 4 5 3 4 4 5 7 5 3 3 3 3 8 11 7 9 15 17 14
11 12 13 13 13 12 11 11 9 7 6 6 6 7 5 5 5 4 3 4 5 4 5 5 3 2 4 2 7 6 12 17 12
12 13 14 14 13 13 12 13 10 9 8 7 8 8 8 7 6 7 3 4 4 2 2 2 0 8 2 5 6 7 14 12 8
11 12 15 14 13 14 17 17 16 15 14 14 14 13 12 12 13 11 8 6 6 3 2 2 1 2 5 9 12 17 14 17 17
10 11 13 13 13 14 17 20 17 19 18 14 15 15 14 11 11 12 12 11 11 9 6 1 4 5 5 4 6 9 16 22 23
9 10 11 11 13 15 14 17 19 14 17 19 19 17 16 14 15 16 15 14 13 11 11 10 7 9 8 8 8 6 15 22 26
7 8 9 11 13 15 14 12 14 18 6 2 8 13 15 17 17 16 16 17 17 15 14 12 11 11 6 3 7 7 10 13 18
6 7 8 9 10 12 14 14 11 11 15 5 2 2 0 8 13 14 15 16 15 16 16 13 12 13 13 12 10 12 19 18 8
5 6 6 7 9 12 13 14 13 11 10 14 4 2 1 3 6 8 11 13 14 14 14 14 14 12 10 11 15 19 18 22 19
4 4 4 5 8 8 10 11 12 9 10 5 9 6 3 1 3 1 4 9 11 13 12 12 12 13 12 11 11 20 19 17 19
3 2 3 4 6 7 7 8 9 10 8 9 5 4 2 2 1 2 3 5 7 8 9 11 11 12 12 12 11 15 18 18 17
Wind_Direction
296 298 289 284 298 315 328 302 312 308 283 283 265 276 275 271 263 246 228 225 218 219 222 220 210 197 193 190 176 164 162 160 156
17 8 313 306 274 287 345 324 308 305 282 279 278 273 279 277 270 257 233 229 228 230 232 233 225 213 200 191 186 173 170 167 164
46 59 15 278 265 274 309 328 331 333 322 302 285 283 275 275 281 266 245 240 238 249 227 234 232 222 211 198 189 182 181 178 171
66 74 46 63 49 293 304 319 318 315 322 317 297 288 288 287 293 275 257 258 246 244 237 238 240 235 222 215 200 196 192 186 179
70 72 73 307 295 329 18 316 301 308 296 307 300 298 301 301 300 290 268 273 255 229 234 230 245 241 231 222 214 205 200 194 188
47 84 94 73 2 295 284 315 296 271 295 303 305 322 315 314 316 296 280 269 276 257 254 249 244 246 235 228 218 211 206 199 194
72 75 76 65 47 4 329 45 14 218 247 285 337 353 0 348 353 336 309 285 272 270 261 256 249 233 223 222 213 208 214 202 200
76 75 68 65 60 56 56 51 63 51 31 307 298 285 310 343 346 348 360 319 301 275 271 266 248 236 236 226 224 211 219 214 205
68 68 65 65 66 61 59 59 56 61 60 70 2 332 308 293 301 336 341 356 348 332 251 260 260 253 235 235 236 238 226 223 213
65 63 61 58 54 55 50 48 53 57 63 44 44 53 46 34 335 319 332 345 2 353 10 50 22 50 135 28 53 212 229 219 212
71 68 66 62 54 51 47 38 37 44 57 60 58 57 56 61 71 71 39 346 328 358 25 33 62 79 26 299 292 309 4 223 243
74 73 70 64 60 59 59 52 51 53 57 61 66 63 66 64 61 57 70 109 103 189 157 70 357 96 128 123 53 350 301 313 292
79 76 72 66 64 60 55 52 57 54 52 55 54 58 60 54 58 60 59 50 58 71 119 111 165 215 253 266 273 296 285 319 279
76 74 73 67 66 64 58 55 59 62 63 59 64 63 64 61 59 59 58 52 53 58 62 240 175 110 60 267 272 268 266 290 267
80 75 73 68 66 65 64 63 58 70 73 76 76 78 74 67 62 60 58 55 53 51 52 60 70 97 113 71 40 323 279 265 257
82 77 72 66 58 57 57 62 58 56 67 113 80 68 65 66 61 57 56 52 51 52 53 51 50 52 60 79 52 15 320 277 260
95 82 71 67 64 59 54 55 58 49 41 54 70 23 11 39 44 48 45 46 46 48 47 48 52 53 53 63 75 58 33 38 38
106 92 75 63 56 52 47 45 51 50 48 45 66 68 9 336 12 37 23 27 34 37 40 43 43 43 49 49 56 36 43 38 37
125 101 80 63 60 58 51 43 42 44 45 62 50 65 47 33 335 0 33 25 21 25 28 31 34 34 32 32 39 34 33 36 37
141 98 61 46 47 48 47 45 40 42 39 39 34 53 38 25 32 306 352 5 17 19 20 23 26 25 19 16 19 28 25 28 35